Regional Weather Roundup
Issued by NWS

Home | Current Version | Previous Version | Text Only | Print | Product List | Glossary Off
Versions: 1 2 3 4 5 6 7 8 9 10 11 12 13 14 15 16 17 18 19 20 21 22 23 24 25 26 27 28 29 30 31 32 33 34 35 36 37 38 39 40 41 42 43 44 45 46 47 48 49 50

000
ASUS43 KBIS 010959
RWRND

NORTH DAKOTA REGIONAL WEATHER ROUNDUP
NATIONAL WEATHER SERVICE BISMARCK ND
500 AM CDT MON SEP 01 2014

NOTE: "FAIR" INDICATES FEW OR NO CLOUDS BELOW 12,000 FEET WITH NO
SIGNIFICANT WEATHER AND/OR OBSTRUCTIONS TO VISIBILITY.


NDZ001>003-009>011-017-011100-
NORTHWEST NORTH DAKOTA

CITY           SKY/WX    TMP DP  RH WIND       PRES   REMARKS
WILLISTON      CLEAR     50  47  89 SW5       29.79R
MINOT          PTCLDY    51  49  92 SW6       29.73F
$$

NDZ018>021-031>035-040>046-011100-
SOUTHWEST NORTH DAKOTA

CITY           SKY/WX    TMP DP  RH WIND       PRES   REMARKS
BISMARCK       CLEAR     53  52  96 CALM      29.78F
GARRISON         N/A     49  49 100 CALM      29.77S
HETTINGER ARPT CLEAR     47  44  90 N14       29.85S
$$

NDZ004>008-012>016-024-026-027-054-011100-
NORTHEAST NORTH DAKOTA

CITY           SKY/WX    TMP DP  RH WIND       PRES   REMARKS
GRAND FORKS    MOCLDY    53  52  96 W5        29.67R
DEVILS LAKE    MOCLDY    55  50  82 W9        29.69F
$$

NDZ022-023-025-028>030-036>039-047>053-011100-
SOUTHEAST NORTH DAKOTA

CITY           SKY/WX    TMP DP  RH WIND       PRES   REMARKS
FARGO          MOCLDY    54  52  93 W5        29.68S
$$



USA.gov is the U.S. government's official web portal to all federal, state and local government web resources and services.